Overview Statistics Trail Chart Weather Telemetry Raw packets
 

This is the latest recevied weather packets stored in our database for station/object KD4EG. If no packets are shown the sender has not sent any weather packets the latest 10 day(s).

<< 100 101 102 103 104 105 106 >>
Time Temp. Humidity Pressure Rain* Wind** Luminosity Snow
1787864304 27.22° C 73% 1016.6 hPa 0 mm - 372 W/m² -
1787863999 26.67° C 77% 1016.8 hPa 0 mm - 365 W/m² -
1787863698 26.11° C 80% 1017 hPa 0 mm - 241 W/m² -
1787863397 26.11° C 81% 1017 hPa 0 mm - 236 W/m² -
1787863093 26.11° C 79% 1017.2 hPa 0 mm - 242 W/m² -
1787862788 26.11° C 81% 1017.4 hPa 0 mm - 347 W/m² -
1787862487 26.11° C 81% 1017.3 hPa 0 mm - 304 W/m² -
1787862183 25.56° C 81% 1017.3 hPa 0 mm - 369 W/m² -
1787861878 25.56° C 82% 1017.4 hPa 0 mm - 341 W/m² -
1787861577 25° C 84% 1017.4 hPa 0 mm - 365 W/m² -
1787861271 25° C 85% 1017.5 hPa 0 mm - 285 W/m² -
1787860971 24.44° C 82% 1017.6 hPa 0 mm - 234 W/m² -
1787860670 24.44° C 86% 1017.5 hPa 0 mm - 294 W/m² -
1787860365 23.89° C 91% 1017.7 hPa 0 mm - 332 W/m² -
1787860060 23.89° C 92% 1017.5 hPa 0 mm - 298 W/m² -
1787859756 23.33° C 91% 1017.6 hPa 0 mm - 332 W/m² -
1787859455 22.78° C 93% 1017.9 hPa 0 mm - 398 W/m² -
1787859155 23.33° C 92% 1017.7 hPa 0 mm - 436 W/m² -
1787858852 23.89° C 95% 1018 hPa 0 mm - 283 W/m² -
1787858547 23.33° C 95% 1017.9 hPa 0 mm - 478 W/m² -
1787858246 23.33° C 96% 1017.6 hPa 0 mm - 461 W/m² -
1787857943 23.33° C 97% 1017.5 hPa 0 mm - 429 W/m² -
1787857638 23.33° C 97% 1017.6 hPa 0 mm - 492 W/m² -
1787857334 23.33° C 97% 1017.6 hPa 0 mm - 416 W/m² -
1787857032 22.78° C 97% 1017.7 hPa 4.83 mm - 318 W/m² -

* Rain latest hour (hover to see other rain measurements)
** Current wind speed in m/s (hover to see current wind gust speed)